[[{"header":{"parameterUnit":"m.s-1","parameterCategory":1,"la1":30.2991,"la2":30.254,"lo1":-89.0895,"lo2":-89.0444,"dy":0.0017,"dx":0.0017,"nx":28,"ny":28,"refTime":"2023-10-15T21:00:00:Z","depth":0,"parameterNumber":2,"parameterNumberName":"U-component_of_WINDS"},"data":[0,0,0,0,0,0,0,0,0,0,0,0,0,0,0,0,0,0,0,0,0,0,0,0,0,0,0,0,0,0,0,0,0,0,0,0,0,0,0,0,0,0,0,0,0,0,0,0,0,0,0,0,0,0,0,0,0,0,2.1841,2.184,0,2.182,2.1819,2.1819,2.1761,2.176,2.1759,2.1757,2.1735,2.1736,2.1736,0,0,0,0,0,0,0,0,0,0,0,0,0,2.1831,2.1832,2.1841,2.184,2.184,2.182,2.1819,2.1819,2.1761,2.176,2.1758,2.1757,2.1735,2.1736,2.1736,0,0,0,0,0,0,0,0,0,0,0,0,0,2.1825,2.1832,2.1841,2.1809,2.1806,2.182,2.1819,2.1819,2.1762,2.176,2.1758,2.1756,2.1735,2.1736,2.1736,2.1779,0,0,2.1739,2.1739,0,0,0,0,0,0,0,0,2.1826,2.1826,2.1814,2.1811,2.1808,2.1791,2.1808,2.1806,2.1762,2.1778,2.1757,2.1755,2.1755,2.1754,2.1754,2.1778,2.1777,2.1739,2.174,2.174,2.174,0,0,0,0,0,0,0,2.1826,2.1826,2.1832,2.1814,2.181,2.1796,2.1793,2.1807,2.1778,2.1777,2.1773,2.1771,2.1753,2.1754,2.1753,2.1777,2.1739,2.174,2.174,2.1741,2.1836,2.1838,0,0,0,0,0,0,2.1831,2.1827,2.1833,2.1832,2.1812,2.1798,2.1794,2.1798,2.1777,2.1772,2.1773,2.1768,2.1753,2.1753,2.1752,2.1801,2.174,2.1741,2.1741,2.1834,2.1836,2.1839,0,0,0,0,0,0,2.1831,2.1832,2.1834,2.1828,2.1827,2.18,2.1805,2.1799,2.1799,2.1774,2.1768,2.1778,2.1752,2.1751,2.1773,2.18,2.1741,2.1742,2.1832,2.1835,2.1838,2.19,0,0,0,0,0,0,2.1831,2.1833,2.1848,2.1829,2.1828,2.1855,2.1806,2.18,2.1801,2.1795,2.1778,2.1773,2.175,2.1772,2.1774,2.18,2.1743,2.1829,2.1833,2.1837,2.1895,2.1905,2.1913,0,0,0,0,0,2.1831,2.1866,2.1849,2.185,2.1847,2.1856,2.1856,2.1828,2.1803,2.1819,2.1803,2.1774,2.1797,2.1775,2.1777,2.1803,2.1827,2.1832,2.1836,2.1891,2.1903,2.1913,0,0,0,0,0,0,2.1888,2.1863,2.1844,2.1874,2.1868,2.1847,2.1865,2.1841,2.1842,2.1836,2.1803,2.1799,2.1826,2.1817,2.1793,2.1844,2.1808,2.1813,2.1849,2.186,2.1868,2.1869,2.1743,0,0,0,0,0,2.1905,2.1915,2.1892,2.1921,2.1919,2.1893,2.1896,2.1876,2.1868,2.1865,2.1851,2.1844,2.185,2.1854,2.1858,2.1894,2.189,2.1914,2.1922,2.193,2.1934,2.1953,2.1963,2.1854,2.1854,2.1853,0,0,2.1938,2.1925,2.1934,2.1932,2.1925,2.1936,2.1891,2.1904,2.1913,2.1867,2.1887,2.1877,2.1867,2.1897,2.1909,2.189,2.1964,2.1935,2.1941,2.1942,2.1959,2.1969,2.1978,2.1857,2.1856,2.1856,0,0,2.2004,2.1996,2.2019,2.2014,2.2004,2.1987,2.1993,2.1976,2.1967,2.1987,2.1954,2.1963,2.1974,2.1969,2.1967,2.2035,2.2008,2.2037,2.2082,2.2101,2.211,2.2117,2.2141,2.215,2.2042,2.2042,2.2042,0,2.2047,2.2062,2.2034,2.205,2.2051,2.2012,2.2035,2.2031,2.2023,2.2024,2.2004,2.2017,2.2008,2.2036,2.2053,2.2053,2.2059,2.2038,2.2111,2.2118,2.2125,2.2147,2.2156,2.2046,2.2045,2.2045,2.2045,0,2.2115,2.2127,2.2147,2.2141,2.2144,2.2164,2.2139,2.2146,2.2126,2.2112,2.2133,2.2121,2.2123,2.2128,2.2109,2.2154,2.2143,2.2117,2.2079,2.2139,2.216,2.2168,2.2051,2.205,2.2049,2.2048,0,0,2.2215,2.2195,2.2203,2.22,2.2188,2.2196,2.2215,2.2217,2.2223,2.222,2.2235,2.2246,2.2223,2.2222,2.2202,2.2219,2.2274,2.2191,2.2191,2.2207,2.2323,2.2342,2.2352,2.2257,2.2258,2.2259,2.2324,0,2.2277,2.2308,2.2284,2.2319,2.233,2.2294,2.231,2.2305,2.2293,2.23,2.2286,2.2295,2.2264,2.2263,2.2278,2.2264,2.2296,2.2259,2.227,2.2271,2.2272,2.2363,2.2382,2.2444,2.2332,2.2333,2.2334,0,2.2353,2.2354,2.2391,2.2378,2.2381,2.2396,2.2397,2.2405,2.2399,2.2388,2.2389,2.2365,2.2383,2.2347,2.2372,2.2347,2.235,2.2344,2.2346,2.2345,2.2305,2.2364,2.2463,2.2472,2.2347,2.2346,2.2345,0,2.2422,2.2433,2.2456,2.2455,2.244,2.2452,2.2446,2.2438,2.2442,2.2442,2.2444,2.2447,2.2449,2.2452,2.243,2.2406,2.2457,2.242,2.2449,2.245,2.246,2.246,2.256,2.2464,2.2464,2.2464,2.2464,0,2.2493,2.2517,2.2487,2.2501,2.2527,2.25,2.2526,2.2517,2.2511,2.2523,2.2492,2.2504,2.2475,2.2484,2.2467,2.249,2.2491,2.2483,2.2478,2.2486,2.2486,2.2486,2.2481,2.2467,2.2466,2.2466,2.2465,0,2.2573,2.2554,2.2577,2.2562,2.2559,2.2579,2.2566,2.2579,2.2566,2.2581,2.2584,2.2563,2.2572,2.2551,2.2557,2.2546,2.2578,2.2567,2.2581,2.2577,2.2608,2.2605,2.2711,2.2723,2.262,2.2621,2.2622,0,2.2619,2.2637,2.2625,2.2631,2.2627,2.2638,2.2641,2.2616,2.2622,2.2617,2.2631,2.2638,2.2642,2.2659,2.2644,2.2649,2.2637,2.2674,2.2637,2.2644,2.2637,2.2636,2.2638,2.2681,2.2682,2.2683,2.2684,0,2.2703,2.2694,2.27,2.2704,2.271,2.2712,2.2711,2.2718,2.2692,2.2699,2.2709,2.2713,2.272,2.2727,2.2729,2.2724,2.27,2.2696,2.2703,2.271,2.2717,2.2713,2.26,2.2693,2.2692,2.2692,2.2691,2.2691,2.2767,2.2782,2.2776,2.2785,2.2782,2.2783,2.2795,2.2784,2.2791,2.2796,2.2781,2.2794,2.2789,2.2789,2.2787,2.2797,2.278,2.279,2.2793,2.2795,2.28,2.2717,2.2797,2.2797,2.2797,2.2796,2.2796,0,2.285,2.2845,2.2853,2.2854,2.2862,2.284,2.2839,2.2846,2.2859,2.2856,2.2861,2.2873,2.2881,2.2868,2.2874,2.2885,2.2874,2.2887,2.2885,2.2884,2.2815,2.2808,2.2896,2.2895,2.2895,2.2895,2.2895,2.2895,2.2893,2.2916,2.2906,2.2929,2.2923,2.2937,2.2938,2.2939,2.2937,2.2952,2.2959,2.295,2.2944,2.2949,2.2956,2.2952,2.2955,2.2972,2.2964,2.2899,2.2889,2.288,2.2873,2.2973,2.2973,2.3032,2.3033,2.3033]},{"header":{"parameterUnit":"m.s-1","parameterCategory":1,"la1":30.2991,"la2":30.254,"lo1":-89.0895,"lo2":-89.0444,"dy":0.0017,"dx":0.0017,"nx":28,"ny":28,"refTime":"2023-10-15T21:00:00:Z","depth":0,"parameterNumber":3,"parameterNumberName":"V-component_of_WINDS"},"data":[0,0,0,0,0,0,0,0,0,0,0,0,0,0,0,0,0,0,0,0,0,0,0,0,0,0,0,0,0,0,0,0,0,0,0,0,0,0,0,0,0,0,0,0,0,0,0,0,0,0,0,0,0,0,0,0,0,0,-5.6182,-5.6184,0,-5.6347,-5.6349,-5.6351,-5.6296,-5.6293,-5.6289,-5.6286,-5.6449,-5.6457,-5.6464,0,0,0,0,0,0,0,0,0,0,0,0,0,-5.5813,-5.582,-5.6182,-5.6184,-5.6186,-5.6347,-5.6349,-5.6351,-5.6297,-5.6292,-5.6288,-5.6284,-5.6447,-5.6456,-5.6465,0,0,0,0,0,0,0,0,0,0,0,0,0,-5.5975,-5.5822,-5.6181,-5.6178,-5.6179,-5.6347,-5.6349,-5.6352,-5.6298,-5.6292,-5.6287,-5.6282,-5.6444,-5.6455,-5.6466,-5.6645,0,0,-5.6502,-5.6507,0,0,0,0,0,0,0,0,-5.5966,-5.5988,-5.6176,-5.6179,-5.618,-5.6296,-5.6279,-5.645,-5.6299,-5.6253,-5.6286,-5.6279,-5.6402,-5.6417,-5.6459,-5.6652,-5.6659,-5.6503,-5.651,-5.6514,-5.6518,0,0,0,0,0,0,0,-5.5955,-5.5981,-5.6247,-5.6179,-5.6182,-5.6166,-5.6184,-5.6311,-5.6355,-5.6256,-5.6253,-5.6273,-5.6402,-5.6448,-5.6463,-5.6662,-5.6502,-5.6512,-5.652,-5.6524,-5.7008,-5.7014,0,0,0,0,0,0,-5.5943,-5.5972,-5.6242,-5.6252,-5.6058,-5.6178,-5.6197,-5.6264,-5.6354,-5.6362,-5.6278,-5.627,-5.6431,-5.6449,-5.6468,-5.6683,-5.6514,-5.6525,-5.6532,-5.7003,-5.701,-5.7016,0,0,0,0,0,0,-5.5935,-5.5968,-5.6235,-5.6111,-5.6144,-5.619,-5.6266,-5.627,-5.6316,-5.637,-5.6377,-5.6317,-5.6428,-5.6452,-5.6602,-5.6688,-5.653,-5.6541,-5.6996,-5.7005,-5.7013,-5.7113,0,0,0,0,0,0,-5.5925,-5.5965,-5.6035,-5.6113,-5.6151,-5.6368,-5.6271,-5.6277,-5.6337,-5.6329,-5.6409,-5.6417,-5.6425,-5.6585,-5.6613,-5.6701,-5.655,-5.6988,-5.7,-5.701,-5.7103,-5.7125,-5.7144,0,0,0,0,0,-5.5912,-5.6055,-5.6039,-5.6071,-5.6239,-5.6373,-5.6394,-5.6402,-5.6344,-5.6414,-5.6448,-5.6415,-5.6674,-5.66,-5.6632,-5.6724,-5.6983,-5.6996,-5.7009,-5.7093,-5.712,-5.7143,0,0,0,0,0,0,-5.5984,-5.6065,-5.6048,-5.6221,-5.6291,-5.6363,-5.6451,-5.6431,-5.6517,-5.6505,-5.651,-5.6528,-5.6682,-5.6718,-5.6635,-5.6901,-5.6819,-5.684,-5.6872,-5.6898,-5.6918,-5.6906,-5.6559,0,0,0,0,0,-5.602,-5.6123,-5.6188,-5.6335,-5.6371,-5.6405,-5.6464,-5.6464,-5.6536,-5.6564,-5.6609,-5.6678,-5.6775,-5.6839,-5.6931,-5.7107,-5.7123,-5.7186,-5.7207,-5.7223,-5.7241,-5.7336,-5.7365,-5.706,-5.706,-5.706,0,0,-5.6095,-5.6153,-5.6217,-5.6351,-5.6405,-5.651,-5.643,-5.6545,-5.6623,-5.6581,-5.6725,-5.6761,-5.6838,-5.7002,-5.7076,-5.7036,-5.7329,-5.7241,-5.7253,-5.7262,-5.7353,-5.7382,-5.7407,-5.7069,-5.7068,-5.7066,0,0,-5.6287,-5.6341,-5.6469,-5.6525,-5.6608,-5.663,-5.6661,-5.6738,-5.676,-5.6906,-5.6876,-5.6968,-5.7135,-5.7191,-5.7241,-5.7454,-5.7426,-5.7484,-5.759,-5.7683,-5.7707,-5.7729,-5.7804,-5.7831,-5.7501,-5.7501,-5.7501,0,-5.6369,-5.6529,-5.6537,-5.6655,-5.6714,-5.6683,-5.6812,-5.6865,-5.6973,-5.7014,-5.6968,-5.7178,-5.7227,-5.7403,-5.7456,-5.7498,-5.7532,-5.7474,-5.7704,-5.7725,-5.7745,-5.7817,-5.7845,-5.7508,-5.7507,-5.7506,-5.7506,0,-5.6626,-5.6737,-5.683,-5.6938,-5.7007,-5.713,-5.7155,-5.7224,-5.7218,-5.7245,-5.7392,-5.7451,-5.7554,-5.7596,-5.7591,-5.7772,-5.7745,-5.7702,-5.7619,-5.778,-5.7848,-5.7876,-5.7517,-5.7514,-5.7513,-5.7511,0,0,-5.6867,-5.6978,-5.7012,-5.706,-5.715,-5.7235,-5.7356,-5.7459,-5.7517,-5.7593,-5.7693,-5.7836,-5.7797,-5.7854,-5.7855,-5.7937,-5.8101,-5.7883,-5.7885,-5.7921,-5.8303,-5.8334,-5.8366,-5.8083,-5.8088,-5.8092,-5.8296,0,-5.7065,-5.7279,-5.729,-5.7484,-5.7586,-5.7558,-5.7663,-5.7728,-5.7756,-5.7845,-5.7874,-5.7975,-5.7916,-5.795,-5.803,-5.8064,-5.8177,-5.8049,-5.8175,-5.8179,-5.8156,-5.8402,-5.8436,-5.8625,-5.8322,-5.8327,-5.833,0,-5.7325,-5.7411,-5.7616,-5.7691,-5.7734,-5.7829,-5.7924,-5.801,-5.8083,-5.8097,-5.8161,-5.8151,-5.8272,-5.8186,-5.8353,-5.8266,-5.8318,-5.8342,-5.8349,-5.8361,-5.8264,-5.8419,-5.8685,-5.8714,-5.8372,-5.8369,-5.8366,0,-5.748,-5.7646,-5.779,-5.7832,-5.7924,-5.7991,-5.8032,-5.81,-5.8161,-5.8243,-5.8283,-5.8378,-5.843,-5.8503,-5.8517,-5.8453,-5.8684,-5.8599,-5.8698,-5.8698,-5.8747,-5.8744,-5.9025,-5.8782,-5.8781,-5.8781,-5.878,0,-5.77,-5.7826,-5.7861,-5.795,-5.8089,-5.81,-5.8238,-5.8273,-5.8334,-5.8428,-5.8409,-5.8496,-5.8511,-5.8601,-5.8613,-5.8749,-5.8773,-5.8786,-5.8788,-5.8788,-5.8786,-5.8822,-5.8809,-5.8788,-5.8787,-5.8785,-5.8784,0,-5.7896,-5.7925,-5.808,-5.8154,-5.8176,-5.8276,-5.8338,-5.8422,-5.8448,-5.8567,-5.8595,-5.8635,-5.8741,-5.8763,-5.8887,-5.8895,-5.9057,-5.9045,-5.9033,-5.9031,-5.9129,-5.9119,-5.9442,-5.9485,-5.9214,-5.9216,-5.9218,0,-5.8035,-5.8131,-5.8217,-5.8279,-5.8324,-5.8424,-5.8487,-5.8501,-5.8566,-5.8657,-5.873,-5.8834,-5.8918,-5.9088,-5.9127,-5.9222,-5.9212,-5.9319,-5.9226,-5.9223,-5.9213,-5.9207,-5.9216,-5.9336,-5.9339,-5.9341,-5.9343,0,-5.8277,-5.8287,-5.8379,-5.8477,-5.8553,-5.863,-5.8704,-5.8755,-5.8778,-5.8853,-5.8962,-5.9028,-5.9156,-5.9259,-5.9354,-5.9394,-5.9373,-5.9372,-5.94,-5.9401,-5.939,-5.9397,-5.9081,-5.9365,-5.9363,-5.9361,-5.936,-5.9359,-5.8449,-5.8533,-5.8607,-5.871,-5.8767,-5.8836,-5.8919,-5.8956,-5.9047,-5.9154,-5.9156,-5.9275,-5.9344,-5.947,-5.9516,-5.9608,-5.9574,-5.9615,-5.9625,-5.9634,-5.9643,-5.9376,-5.9625,-5.9625,-5.9624,-5.9624,-5.9623,0,-5.869,-5.8736,-5.8831,-5.8935,-5.9016,-5.8991,-5.9071,-5.914,-5.9245,-5.9313,-5.9397,-5.9522,-5.9621,-5.9669,-5.9767,-5.9831,-5.9824,-5.9856,-5.9851,-5.9861,-5.9668,-5.9634,-5.9861,-5.9861,-5.9861,-5.9861,-5.9861,-5.9861,-5.8825,-5.8967,-5.8985,-5.9154,-5.9199,-5.9317,-5.9364,-5.9427,-5.9481,-5.9622,-5.9706,-5.9737,-5.9796,-5.9898,-5.9988,-5.9999,-6.0036,-6.0074,-6.008,-5.9899,-5.9874,-5.9851,-5.982,-6.0082,-6.0082,-6.0265,-6.0267,-6.0268]}]]